Location: Costa Valle Imagna
(45.8000°N, 9.5000°E)
Time: 19:44:44
(UTC+00:00)

Cosmos 2123 Rocket - Pass Details

Date: 17 February 2020
Orbit: 961 x 992 km, 82.9° (Epoch: 05 April)

Event Time Altitude Azimuth Distance (km) Brightness Sun altitude
Rises 05:21:21 0° 184° (S) 3,693 7.1 -11.2°
Reaches altitude 10° 05:23:52 10° 184° (S) 2,748 6.4 -10.8°
Maximum altitude 05:30:11 85° 97° (E) 1,000 4.1 -9.7°
Drops below altitude 10° 05:36:31 10° 10° (N) 2,754 6.4 -8.6°
Sets 05:39:02 0° 10° (N) 3,702 7.0 -8.2°
